TimeEDT,TemperatureF,Dew PointF,Humidity,Sea Level PressureIn,VisibilityMPH,Wind Direction,Wind SpeedMPH,Gust SpeedMPH,PrecipitationIn,Events,Conditions,WindDirDegrees,DateUTC
12:15 AM,75.2,66.2,73,30.04,10.0,Calm,Calm,-,N/A,,Clear,0,2014-05-29 04:15:00
12:35 AM,73.4,68.0,83,30.04,10.0,Calm,Calm,-,N/A,,Clear,0,2014-05-29 04:35:00
12:55 AM,73.4,66.2,78,30.04,10.0,Calm,Calm,-,N/A,,Clear,0,2014-05-29 04:55:00
1:15 AM,73.4,66.2,78,30.04,10.0,Calm,Calm,-,N/A,,Clear,0,2014-05-29 05:15:00
1:35 AM,69.8,66.2,88,30.03,10.0,Calm,Calm,-,N/A,,Clear,0,2014-05-29 05:35:00
2:15 AM,69.8,66.2,88,30.03,10.0,Calm,Calm,-,N/A,,Clear,0,2014-05-29 06:15:00
2:35 AM,68.0,66.2,94,30.02,10.0,Calm,Calm,-,N/A,,Clear,0,2014-05-29 06:35:00
2:55 AM,68.0,66.2,94,30.02,10.0,Calm,Calm,-,N/A,,Clear,0,2014-05-29 06:55:00
3:15 AM,68.0,66.2,94,30.01,10.0,Calm,Calm,-,N/A,,Clear,0,2014-05-29 07:15:00
3:35 AM,68.0,66.2,94,30.01,10.0,Calm,Calm,-,N/A,,Clear,0,2014-05-29 07:35:00
3:55 AM,66.2,66.2,100,30.01,10.0,Calm,Calm,-,N/A,,Clear,0,2014-05-29 07:55:00
4:15 AM,66.2,64.4,94,30.01,10.0,Calm,Calm,-,N/A,,Clear,0,2014-05-29 08:15:00
4:55 AM,66.2,66.2,100,30.01,9.0,Calm,Calm,-,N/A,,Clear,0,2014-05-29 08:55:00
5:15 AM,66.2,66.2,100,30.01,10.0,Calm,Calm,-,N/A,,Clear,0,2014-05-29 09:15:00
5:35 AM,68.0,66.2,94,30.02,9.0,WSW,3.5,-,N/A,,Clear,240,2014-05-29 09:35:00
5:55 AM,66.2,66.2,100,30.03,9.0,Calm,Calm,-,N/A,,Clear,0,2014-05-29 09:55:00
6:15 AM,66.2,66.2,100,30.04,8.0,SW,3.5,-,N/A,,Clear,220,2014-05-29 10:15:00
6:35 AM,66.2,66.2,100,30.04,8.0,Calm,Calm,-,N/A,,Clear,0,2014-05-29 10:35:00
6:55 AM,68.0,66.2,94,30.04,8.0,WSW,3.5,-,N/A,,Clear,240,2014-05-29 10:55:00
7:15 AM,68.0,66.2,94,30.05,9.0,Calm,Calm,-,N/A,,Clear,0,2014-05-29 11:15:00
7:35 AM,71.6,68.0,88,30.04,8.0,Calm,Calm,-,N/A,,Clear,0,2014-05-29 11:35:00
7:55 AM,73.4,68.0,83,30.05,10.0,Calm,Calm,-,N/A,,Clear,0,2014-05-29 11:55:00
8:15 AM,73.4,68.0,83,30.06,9.0,Calm,Calm,-,N/A,,Clear,0,2014-05-29 12:15:00
8:35 AM,75.2,68.0,78,30.06,10.0,Calm,Calm,-,N/A,,Clear,0,2014-05-29 12:35:00
8:55 AM,77.0,68.0,74,30.06,10.0,West,3.5,-,N/A,,Clear,270,2014-05-29 12:55:00
9:15 AM,80.6,68.0,65,30.06,10.0,Calm,Calm,-,N/A,,Clear,0,2014-05-29 13:15:00
9:35 AM,82.4,68.0,62,30.07,10.0,WNW,4.6,-,N/A,,Clear,290,2014-05-29 13:35:00
9:55 AM,82.4,68.0,62,30.07,10.0,West,4.6,-,N/A,,Clear,260,2014-05-29 13:55:00
10:15 AM,84.2,69.8,62,30.07,10.0,West,4.6,-,N/A,,Clear,280,2014-05-29 14:15:00
10:35 AM,84.2,68.0,58,30.07,10.0,WSW,5.8,-,N/A,,Clear,240,2014-05-29 14:35:00
10:55 AM,86.0,69.8,58,30.07,10.0,WSW,4.6,-,N/A,,Clear,240,2014-05-29 14:55:00
11:15 AM,86.0,69.8,58,30.08,10.0,Calm,Calm,-,N/A,,Clear,0,2014-05-29 15:15:00
11:35 AM,89.6,73.4,59,30.07,10.0,Calm,Calm,-,N/A,,Clear,0,2014-05-29 15:35:00
11:55 AM,91.4,75.2,59,30.07,10.0,Calm,Calm,-,N/A,,Clear,0,2014-05-29 15:55:00
12:15 PM,93.2,75.2,56,30.07,10.0,Calm,Calm,-,N/A,,Clear,0,2014-05-29 16:15:00
12:35 PM,93.2,75.2,56,30.07,10.0,SSW,5.8,-,N/A,,Clear,210,2014-05-29 16:35:00
12:55 PM,95.0,73.4,49,30.07,10.0,SSW,6.9,-,N/A,,Clear,200,2014-05-29 16:55:00
1:15 PM,93.2,75.2,56,30.06,10.0,WSW,5.8,-,N/A,,Clear,250,2014-05-29 17:15:00
1:55 PM,93.2,73.4,52,30.04,10.0,SSW,9.2,-,N/A,,Clear,200,2014-05-29 17:55:00
2:15 PM,95.0,73.4,49,30.04,10.0,Calm,Calm,-,N/A,,Partly Cloudy,0,2014-05-29 18:15:00
2:35 PM,93.2,73.4,52,30.03,9.0,Calm,Calm,-,N/A,,Partly Cloudy,0,2014-05-29 18:35:00
2:55 PM,95.0,71.6,47,30.02,10.0,South,5.8,-,N/A,,Partly Cloudy,170,2014-05-29 18:55:00
3:15 PM,95.0,73.4,49,30.01,10.0,SSW,4.6,-,N/A,,Clear,210,2014-05-29 19:15:00
3:35 PM,95.0,73.4,49,30.00,10.0,SSW,6.9,-,N/A,,Clear,200,2014-05-29 19:35:00
3:55 PM,95.0,73.4,49,29.98,10.0,South,4.6,-,N/A,,Clear,190,2014-05-29 19:55:00
4:15 PM,95.0,73.4,49,29.98,10.0,WSW,6.9,-,N/A,,Clear,250,2014-05-29 20:15:00
4:35 PM,95.0,73.4,49,29.98,10.0,SSW,6.9,-,N/A,,Clear,200,2014-05-29 20:35:00
5:15 PM,95.0,73.4,49,29.97,10.0,South,5.8,-,N/A,,Clear,180,2014-05-29 21:15:00
5:35 PM,95.0,73.4,49,29.97,10.0,SSW,5.8,-,N/A,,Clear,200,2014-05-29 21:35:00
6:15 PM,95.0,73.4,49,29.97,10.0,South,5.8,-,N/A,,Partly Cloudy,180,2014-05-29 22:15:00
6:35 PM,93.2,73.4,52,29.97,10.0,Calm,Calm,-,N/A,,Clear,0,2014-05-29 22:35:00
6:55 PM,89.6,75.2,62,29.99,10.0,ENE,8.1,-,N/A,,Scattered Clouds,70,2014-05-29 22:55:00
7:15 PM,87.8,75.2,66,30.00,10.0,ENE,11.5,-,N/A,,Mostly Cloudy,70,2014-05-29 23:15:00
7:35 PM,82.4,73.4,74,30.01,9.0,NNE,9.2,23.0,N/A,,Overcast,20,2014-05-29 23:35:00
7:55 PM,73.4,69.8,88,30.01,0.8,ENE,18.4,28.8,0.96,Rain,Heavy Rain,60,2014-05-29 23:55:00
8:15 PM,71.6,69.8,94,30.04,7.0,East,6.9,-,N/A,Rain,Light Rain,80,2014-05-30 00:15:00
8:35 PM,71.6,71.6,100,30.05,9.0,East,15.0,20.7,N/A,,Mostly Cloudy,90,2014-05-30 00:35:00
8:55 PM,71.6,69.8,94,30.06,10.0,ESE,15.0,21.9,N/A,,Mostly Cloudy,120,2014-05-30 00:55:00
9:15 PM,69.8,68.0,94,30.06,10.0,ESE,15.0,20.7,N/A,,Mostly Cloudy,120,2014-05-30 01:15:00
9:35 PM,69.8,68.0,94,30.09,10.0,Calm,Calm,-,N/A,,Mostly Cloudy,0,2014-05-30 01:35:00
9:55 PM,69.8,68.0,94,30.10,10.0,East,5.8,-,N/A,,Overcast,100,2014-05-30 01:55:00
10:15 PM,69.8,68.0,94,30.12,10.0,NNW,6.9,-,N/A,,Overcast,340,2014-05-30 02:15:00
10:35 PM,69.8,68.0,94,30.13,3.0,NE,12.7,-,0.17,Rain,Rain,40,2014-05-30 02:35:00
10:55 PM,68.0,68.0,100,30.14,1.2,ESE,5.8,-,0.50,Rain,Heavy Rain,110,2014-05-30 02:55:00
11:15 PM,68.0,68.0,100,30.14,1.8,ENE,5.8,-,0.25,Rain,Heavy Rain,60,2014-05-30 03:15:00
11:35 PM,68.0,68.0,100,30.15,3.0,Calm,Calm,-,0.45,Rain,Rain,0,2014-05-30 03:35:00
11:55 PM,68.0,68.0,100,30.15,1.8,Calm,Calm,-,0.93,Rain,Heavy Rain,0,2014-05-30 03:55:00